Back to catalog

STARLINK-31845

AliveCommunicationsVLEO
NORAD 60129·PAYLOAD·🇺🇸 United States

Launched Jun 24, 2024 from Vandenberg Space Force Base

Loading…

Next Passes (next 24 hours)

TLE

FreshSource: CelesTrak SupGP

Epoch: Sep 14, 2026, 14:00 UTC

1 60129C 24118S   26257.58381944 -.00026568  00000+0 -78525-3 0  2573
2 60129  53.1581 225.2677 0001418  87.5588 286.6828 15.34391901    16

Track STARLINK-31845 in real time with AllMySat

Download on the App Store